Torna al catalogo

FENGYUN 1C DEB

AttivoSSO
NORAD 30234·DEBRIS·🇨🇳 China

Lanciato May 10, 1999 da Taiyuan Satellite Launch Center

Loading…

Prossimi Passaggi (prossime 24 ore)

TLE

AggiornatoSource: Space-Track

Epoca: Sep 14, 2026, 11:21 UTC

1 30234U 99025WT  26257.47308931  .00000367  00000-0  19909-3 0  9991
2 30234  98.6309 265.2159 0065951   3.6291 160.6310 14.17193410 13592

Traccia FENGYUN 1C DEB in tempo reale con AllMySat

Download on the App Store